Regional Weather Roundup
Issued by NWS

Home | Current Version | Previous Version | Text Only | Print | Product List | Glossary On
Versions: 1 2 3 4 5 6 7 8 9 10 11 12 13 14 15 16 17 18 19 20 21 22 23 24 25 26 27 28 29 30 31 32 33 34 35 36 37 38 39 40 41 42 43 44 45 46 47 48 49 50
000
ASUS44 KLUB 130001
RWRTX
WEST TEXAS WEATHER ROUNDUP
NATIONAL WEATHER SERVICE LUBBOCK TX
600 PM CST FRI FEB 12 2016

NOTE: "FAIR" INDICATES FEW OR NO CLOUDS BELOW 12,000 FEET WITH NO
SIGNIFICANT WEATHER AND/OR OBSTRUCTIONS TO VISIBILITY.

TXZ004-006>008-010-012-014-016-OKZ002-130100-
TEXAS PANHANDLE/OKLAHOMA PANHANDLE

CITY           SKY/WX    TMP DP  RH WIND       PRES   REMARKS
AMARILLO       CLEAR     60  28  29 SE15      30.31R
BORGER         CLEAR     63  26  24 SE8       30.30R
CANADIAN       CLEAR     59  32  36 E10       30.31R
DALHART        CLEAR     61  24  24 SE10      30.30R
DUMAS          CLEAR     60  26  26 SE9       30.29S
GUYMON         CLEAR     58  29  33 SE8       30.30R
$$

TXZ026-029-035-045-048-130100-
SOUTHERN PANHANDLE/SOUTH PLAINS/ROLLING PLAINS

CITY           SKY/WX    TMP DP  RH WIND       PRES   REMARKS
CHILDRESS      CLEAR     62  35  36 E9        30.31R
LUBBOCK        CLEAR     65  24  21 SE12      30.28R
SNYDER           N/A     66  31  27 E13       30.28R
$$

TXZ052-054-060>062-072-078-127-140-154-169-130100-
PERMIAN BASIN/CONCHO VALLEY/BIG COUNTRY/EDWARDS PLATEAU

CITY           SKY/WX    TMP DP  RH WIND       PRES   REMARKS
ABILENE        CLEAR     67  32  27 E9        30.27R
BROWNWOOD      CLEAR     66  32  28 E10       30.27R
JUNCTION       CLEAR     76  31  19 NE10      30.20R
MIDLAND        CLEAR     72  29  20 E12       30.24R
ODESSA         CLEAR     72  26  18 E9        30.25R
SAN ANGELO     CLEAR     72  32  23 NE10      30.24R
WINK           CLEAR     74  22  14 E6        30.20S
$$

TXZ055-058-074-075-080-082-130100-
FAR WEST/SOUTHWEST MOUNTAINS/TRANS PECOS

CITY           SKY/WX    TMP DP  RH WIND       PRES   REMARKS
DRYDEN           N/A     80  19  10 VRB5      30.17R
EL PASO        CLEAR     73  11   9 CALM      30.23R
FORT STOCKTON  CLEAR     72  23  16 E8        30.22S
GUADALUPE PASS CLEAR     64  14  14 E9        30.32R
MARFA          CLEAR     71   6   8 SE5       30.29R
PECOS          CLEAR     73  25  16 NE6       30.21R
PRESIDIO       FAIR      79   7   6 CALM      30.18S
$$

TXZ014-016-019-021>030-083-130100
TEXAS TECH WEST TEXAS MESONET/TEXAS PANHANDLE/NORTHERN SOUTH PLAINS

CITY           SKY/WX    TMP DP  RH WIND       PRES   REMARKS
ABERNATHY 5ENE   N/A     65  26  22 SE10      30.29R
AMARILLO 9NNE    N/A     62  29  28 SE8       30.29S
AMARILLO 7SSE    N/A     61  29  29 SE8       30.32R
AMHERST 1NE      N/A     65  23  19 E13       30.28R
BOOTLEG 11WNW    N/A     62  26  26 E10       30.31S
CANADIAN 6E      N/A     57  32  38 E10       30.30R
CAPROCK CYN SP   N/A     63  30  29 E9        30.31R
CHILDRESS 2NNE   N/A     62  35  37 E10       30.30R
CLARENDON 2WSW   N/A     61  29  30 E12       30.31R
CLAUDE 12SW      N/A     60  29  31 SE10      30.31R
DIMMITT 2NE      N/A     61  29  30 E12       30.30R
FLOYDADA 2NNE    N/A     62  26  24 E9        30.29R
FRIONA 2NE       N/A     62  28  27 E12       30.30R
GOODLETT 3W      N/A     63  33  32 E12       30.30R
HART 3N          N/A     61  29  29 E12       30.30R
HEREFORD 2NW     N/A     63  25  23 E9        30.29S
MCLEAN 1E        N/A     59  30  33 E9        30.30R
MEMPHIS 1NE      N/A     62  32  32 E10       30.31R
MULESHOE 2SSW    N/A     67  22  18 SE12      30.27S
OLTON 6S         N/A     65  21  18 SE10      30.28R
PALO DURO SP     N/A     62  29  28 SE8       30.32R
PAMPA 2E         N/A     58  28  31 SE9       30.31R
PLAINVIEW 1S     N/A     62  29  28 E9        30.29R
SILVERTON 7ESE   N/A     60  30  31 E9        30.31R
TULIA 2ENE       N/A     60  33  36 E13       30.31R
TURKEY 2WSW      N/A     63  32  31 E12       30.30R
UMBARGER 3NNE    N/A     60  28  29 SE12      30.31R
$$

TXZ033>036-039>041-045>048-130100
TEXAS TECH WEST TEXAS MESONET/SOUTH PLAINS

CITY           SKY/WX    TMP DP  RH WIND       PRES   REMARKS
AIKEN 3WSW       N/A     62  30  29 E13       30.31R
ANDREWS 2NE      N/A     71  24  17 E9        30.25S
ANTON 6SSW       N/A     66  25  21 SE14      30.28R
BROWNFIELD 2S    N/A     66  24  20 SE12      30.27R
DENVR CTY 7WNW   N/A     69  22  17 SE12      30.25R
GAIL 2ESE        N/A     67  26  21 E12       30.26R
LAMESA 2SE       N/A     66  27  23 E10       30.27R
LEVELLAND 4S     N/A     67  22  18 SE13      30.27R
LUBBOCK 3WNW     N/A     67  22  18 SE10      30.28R
MORTON 1ENE      N/A     66  25  20 SE13      30.26R
ODONNELL 1N      N/A     67  22  18 SE9       30.27R
PLAINS 3N        N/A     68  24  19 SE14      30.26R
RALLS 1SE        N/A     64  29  27 E13       30.30R
REESE CENTER     N/A     66  22  18 SE12      30.28R
SEAGRAVES 1SW    N/A     69  24  18 SE9       30.26R
SEMINOLE 2NNE    N/A     68  25  19 SE10      30.25S
SLATON 2NE       N/A     65  27  23 E10       30.28R
SNYDER 3E        N/A     66  31  27 E12       30.27R
SUNDOWN 8SW      N/A     67  23  18 SE14      30.26S
TAHOKA 3NNE      N/A     67  24  19 E9        30.27R
WOLFFORTH 6SSW   N/A     66  26  22 SE12      30.28R
$$

TXZ031-032-036>038-042>044-130100-
TEXAS TECH WEST TEXAS MESONET/ROLLING PLAINS

CITY           SKY/WX    TMP DP  RH WIND       PRES   REMARKS
ASPERMONT 3NE    N/A     67  34  29 NE7       30.28R
FLUVANNA 3WNW    N/A     65  26  22 E13       30.28R
GRAHAM 5SSW      N/A     66  24  20 E10       30.27R
GUTHRIE 10WSW    N/A     66  32  28 E12       30.28R
HASKELL 1NW      N/A     66  32  28 E8        30.28R
JAYTON 1SSE      N/A     66  31  27 E13       30.28R
KNOX CITY 3NW    N/A     66  32  28 NE7       30.29R
LK A HENRY 1NW   N/A     67  28  22 SE8       30.27R
NORTHFIELD 1S    N/A     64  34  33 E10       30.30R
ODELL 4ENE       N/A     62  34  35 E9        30.32R
PADUCAH 10SW     N/A     65  33  30 E13       30.28R
POST 1NE         N/A     67  25  20 E12       30.27R
RRING SPRGS 3N   N/A     64  31  29 E7        30.29R
SPUR 1W          N/A     66  28  23 E8        30.27R
WEINERT 2NNE     N/A     65  36  33 E8        30.29R
WHITE RVR 6NE    N/A     66  27  23 E12       30.28R
$$

TXZ052-054-060>062-072-078-127-140-154-169-130100-
TEXAS TECH WEST TEXAS MESONET/PERMIAN BASIN/
CONCHO VALLEY/BIG COUNTRY/EDWARDS PLATEAU

CITY           SKY/WX    TMP DP  RH WIND       PRES   REMARKS
COYANOSA 2N      N/A     75  22  13 E5        30.21R
JUNCTION 1SSW    N/A     76  35  22 NE9       30.21R
MERTZON 3NNE     N/A     71  33  25 NE7       30.25R
SAN ANGELO 7NW   N/A     71  30  22 E8        30.25R
STRLNG CT 4WSW   N/A     70  33  25 E6        30.26R
ST LAWRNCE 5SW   N/A     71  26  18 NE13      30.25R
SWEETWATR 11SW   N/A     66  32  28 E9        30.28S
WALL 1E          N/A     70  35  27 NE10      30.26R
$$

TXZ055-058-074-075-080-082-130100-
TEXAS TECH WEST TEXAS MESONET/FAR WEST/SOUTHWEST MOUNTAINS/TRANS PECOS

CITY           SKY/WX    TMP DP  RH WIND       PRES   REMARKS
PRSMN GAP BBNP   N/A     80  12   7 NE8       30.18R
GUADLPE MTN NP   N/A     65  14  14 E5        30.33R
$$



USA.gov is the U.S. government's official web portal to all federal, state and local government web resources and services.